Voltar ao catálogo

COSMOS 2043

AtivoNavegaçãoPO
NORAD 20237·PAYLOAD·🇷🇺 Russia

Lançado Sep 14, 1989 de Plesetsk Cosmodrome

Loading…

Próximas Passagens (próximas 24 horas)

TLE

AtualizadoSource: Space-Track

Época: Sep 14, 2026, 11:42 UTC

1 20237U 89074F   26257.48782850  .00000036  00000-0  13909-3 0  9990
2 20237  82.5807 166.0322 0004716  31.3158 142.3132 12.63554665706175

Acompanhe COSMOS 2043 em tempo real com AllMySat

Download on the App Store